| time (UTC) | temp F | wind direction | speed knots | gust knots | rain 1hr in | rain 24hr in | rain mn in | humidity % | barometer mb |
| 20260503194901 | 68 | 280 | 7.0 | 13.9 | 0.00 | 0.00 | 0.00 | 43 | 1003.4 |
| 20260503193402 | 68 | 260 | 7.0 | 12.2 | 0.00 | 0.00 | 0.00 | 41 | 1003.4 |
| 20260503190403 | 68 | 259 | 7.0 | 9.6 | 0.00 | 0.00 | 0.00 | 43 | 1003.7 |
| 20260503184906 | 67 | 248 | 10.4 | 13.0 | 0.00 | 0.00 | 0.00 | 45 | 1003.7 |
| 20260503183403 | 67 | 258 | 6.1 | 10.4 | 0.00 | 0.00 | 0.00 | 43 | 1004.1 |
| 20260503181902 | 66 | 273 | 7.8 | 12.2 | 0.00 | 0.00 | 0.00 | 43 | 1004.1 |
| 20260503180402 | 66 | 300 | 9.6 | 9.6 | 0.00 | 0.00 | 0.00 | 43 | 1004.1 |
| 20260503173401 | 65 | 260 | 7.0 | 13.9 | 0.00 | 0.00 | 0.00 | 43 | 1004.4 |
| 20260503171901 | 64 | 256 | 7.8 | 11.3 | 0.00 | 0.00 | 0.00 | 46 | 1004.4 |
| 20260503170403 | 63 | 235 | 10.4 | 13.9 | 0.00 | 0.00 | 0.00 | 44 | 1004.7 |
| 20260503150403 | 59 | 236 | 15.6 | 20.0 | 0.00 | 0.00 | 0.00 | 51 | 1006.1 |
| 20260503130403 | 53 | 267 | 2.6 | 7.8 | 0.00 | 0.00 | 0.00 | 57 | 1006.8 |
| 20260503110402 | 48 | 251 | 3.5 | 4.3 | 0.00 | 0.00 | 0.00 | 61 | 1007.1 |
| 20260503080902 | 49 | 211 | 3.5 | 3.5 | 0.00 | 0.00 | 0.00 | 61 | 1009.1 |
| 20260503072903 | 50 | 281 | 4.3 | 6.1 | 0.00 | 0.00 | 0.00 | 58 | 1009.1 |
| 20260503071404 | 49 | 237 | 4.3 | 4.3 | 0.00 | 0.00 | 0.00 | 60 | 1009.1 |
| 20260503054405 | 46 | 33 | 0.9 | 1.7 | 0.00 | 0.00 | 0.00 | 65 | 1010.2 |
| 20260503053402 | 46 | 107 | 0.0 | 2.6 | 0.00 | 0.00 | 0.00 | 67 | 1010.2 |
| 20260503051901 | 47 | 48 | 0.0 | 1.7 | 0.00 | 0.00 | 0.00 | 66 | 1010.2 |
| 20260503050401 | 47 | 97 | 0.0 | 0.0 | 0.00 | 0.00 | 0.00 | 63 | 1010.2 |
| 20260503042903 | 46 | 177 | 1.7 | 2.6 | 0.00 | 0.00 | 0.00 | 61 | 1010.5 |
| 20260503041402 | 46 | 102 | 1.7 | 2.6 | 0.00 | 0.00 | 0.00 | 63 | 1010.5 |
| 20260503034404 | 48 | 180 | 0.0 | 1.7 | 0.00 | 0.00 | 0.00 | 64 | 1010.8 |
| 20260503032903 | 48 | 193 | 0.9 | 1.7 | 0.00 | 0.00 | 0.00 | 65 | 1011.2 |
| 20260503031401 | 48 | 32 | 1.7 | 1.7 | 0.00 | 0.00 | 0.00 | 65 | 1011.5 |
| 20260503025903 | 47 | 126 | 1.7 | 2.6 | 0.00 | 0.00 | 0.00 | 63 | 1011.5 |
| 20260503022903 | 48 | 194 | 0.0 | 0.9 | 0.00 | 0.00 | 0.00 | 60 | 1011.9 |
| 20260503020401 | 49 | 172 | 0.9 | 1.7 | 0.00 | 0.00 | 0.00 | 55 | 1011.9 |
| 20260503014901 | 50 | 140 | 0.0 | 0.0 | 0.00 | 0.00 | 0.00 | 53 | 1011.9 |
| 20260503011903 | 51 | 139 | 0.0 | 0.0 | 0.00 | 0.00 | 0.00 | 49 | 1011.9 |
| 20260503010403 | 52 | 281 | 0.9 | 1.7 | 0.00 | 0.00 | 0.00 | 48 | 1011.9 |
| 20260503004902 | 54 | 216 | 0.9 | 2.6 | 0.00 | 0.00 | 0.00 | 48 | 1011.9 |
| 20260503003402 | 55 | 285 | 1.7 | 3.5 | 0.00 | 0.00 | 0.00 | 45 | 1011.9 |
| 20260503001902 | 56 | 275 | 3.5 | 6.1 | 0.00 | 0.00 | 0.00 | 41 | 1012.2 |
| 20260503000402 | 57 | 247 | 2.6 | 5.2 | 0.00 | 0.00 | 0.00 | 39 | 1012.2 |
| 20260502234903 | 57 | 272 | 1.7 | 9.6 | 0.00 | 0.00 | 0.00 | 36 | 1012.2 |
| 20260502233401 | 58 | 301 | 3.5 | 7.0 | 0.00 | 0.00 | 0.00 | 35 | 1012.2 |
| 20260502231901 | 59 | 283 | 3.5 | 6.1 | 0.00 | 0.00 | 0.00 | 33 | 1012.2 |
| 20260502230403 | 58 | 295 | 7.0 | 12.2 | 0.00 | 0.00 | 0.00 | 35 | 1012.5 |
| 20260502224902 | 59 | 263 | 5.2 | 9.6 | 0.00 | 0.00 | 0.00 | 35 | 1012.5 |
| 20260502223403 | 59 | 254 | 6.1 | 7.8 | 0.00 | 0.00 | 0.00 | 36 | 1012.5 |
| 20260502220404 | 59 | 241 | 6.1 | 7.8 | 0.00 | 0.00 | 0.00 | 36 | 1012.9 |
| 20260502214902 | 59 | 267 | 6.1 | 9.6 | 0.00 | 0.00 | 0.00 | 34 | 1012.9 |
| 20260502213902 | 59 | 210 | 6.1 | 12.2 | 0.00 | 0.00 | 0.00 | 34 | 1013.2 |
| 20260502210902 | 58 | 324 | 7.0 | 11.3 | 0.00 | 0.00 | 0.00 | 36 | 1013.5 |
| 20260502205402 | 57 | 240 | 9.6 | 10.4 | 0.00 | 0.00 | 0.00 | 36 | 1013.9 |
| 20260502203902 | 58 | 233 | 5.2 | 8.7 | 0.00 | 0.00 | 0.00 | 35 | 1013.9 |
| 20260502202402 | 58 | 263 | 9.6 | 9.6 | 0.00 | 0.00 | 0.00 | 35 | 1014.2 |
| 20260502200904 | 58 | 289 | 7.8 | 8.7 | 0.00 | 0.00 | 0.00 | 34 | 1014.2 |